Regional Weather Roundup
Issued by NWS Upton, NY

Current Version | Previous Version | Text Only | Print | Product List | Glossary On
Versions: 1 2 3 4 5 6 7 8 9 10 11 12 13 14 15 16 17 18 19 20 21 22 23 24 25 26 27 28 29 30 31 32 33 34 35 36 37 38 39 40 41 42 43 44 45 46 47 48 49 50
000
ASUS41 KOKX 181108
RWROKX

Regional Weather Roundup
National Weather Service New York NY
600 AM EST MON DEC 18 2017

Note: "FAIR" indicates few or no clouds below 12,000 feet with no
significant weather and/or obstructions to visibility.

NYZ071-072-176-178-NJZ106-104-181200-
New York City Metro Area

CITY           SKY/WX    TMP DP  RH WIND       PRES   REMARKS
Central Park   CLOUDY    35  31  85 VRB5      30.15F WCI  31
Bronx Bot Gard   N/A     32  30  93 CALM      30.14F
Bronx Lehman C   N/A     32  30  93 NE3         N/A
LaGuardia Arpt CLOUDY    36  30  79 NE9       30.14F WCI  29
Queens College   N/A     34  32  93 NE5         N/A  WCI  30
Kennedy Intl   CLOUDY    34  31  88 NE6       30.15S WCI  29
Breezy Point     N/A     34 N/A N/A NE7         N/A  WCI  28
Brooklyn Coll    N/A     36  32  87 N5          N/A  WCI  32
Staten Island    N/A     34  32  93 N3          N/A
Newark/Liberty CLOUDY    34  29  82 N6        30.14F WCI  29
Teterboro      CLOUDY    33  26  75 N5        30.14S WCI  29
$$

NYZ177-179-078>081-181200-
Long Island New York

CITY           SKY/WX    TMP DP  RH WIND       PRES   REMARKS
Jones Beach      N/A     34 N/A N/A E10         N/A  WCI  26
Wantagh          N/A     34  32  93 NE5         N/A  WCI  30
Matinecock Pt    N/A     36 N/A N/A E13         N/A  WCI  27
Farmingdale    CLOUDY    32  28  85 E6        30.14S WCI  26
MacArthur/ISP  CLOUDY    33  24  69 E6        30.14F WCI  28
Shirley        CLOUDY    33  21  61 CALM      30.15F
Mt Sinai Harb    N/A    N/A N/A N/A E3          N/A
Westhampton    CLOUDY    34  20  56 CALM      30.17S
East Hampton   CLOUDY    33  21  62 CALM      30.15F
Southold         N/A     34  23  64 E5          N/A  WCI  30
Montauk          N/A     37  23  56 CALM      30.17F
$$

NYZ052-065-067-181200-
Hudson Valley

CITY           SKY/WX    TMP DP  RH WIND       PRES   REMARKS
White Plains   CLOUDY    30  26  85 CALM      30.11F
Larchmont Harb   N/A     32 N/A N/A N8          N/A  WCI  25
Croton On Huds   N/A     32 N/A N/A NE1         N/A
Somers           N/A     30  23  74 E1          N/A
Brewster         N/A     28  21  74 E3          N/A
Newburgh       CLOUDY    28  23  80 CALM      30.13F
Montgomery     CLOUDY    28  19  69 CALM      30.12F
Otisville        N/A     28  21  74 CALM        N/A
Warwick          N/A     28  21  74 W3          N/A
Suffern          N/A     32  25  74 N1          N/A
Poughkeepsie   CLOUDY    28  18  66 CALM      30.13F
Albany         CLOUDY    19  11  70 CALM      30.12F
$$

NJZ001-105-106-008-010-013-015-019>022-104-181200-
New Jersey

CITY           SKY/WX    TMP DP  RH WIND       PRES   REMARKS
Newark/Liberty CLOUDY    34  29  82 N6        30.14F WCI  29
Teterboro      CLOUDY    33  26  75 N5        30.14S WCI  29
Caldwell       CLOUDY    33  26  75 NE3       30.14F
Somerville     CLOUDY    34  28  79 CALM      30.12F
Linden         CLOUDY    34  30  85 CALM      30.14F
Perth Amboy      N/A     36 N/A N/A NE8         N/A  WCI  29
Sussex         CLOUDY    29  21  72 CALM      30.12F
Andover        NOT AVBL
Trenton        CLOUDY    36  32  85 NE5       30.12S WCI  32
Millville      CLOUDY    39  36  89 CALM      30.12R
Atlantic City  CLOUDY    40  38  93 NW3       30.11R
Wrightstown    CLOUDY    37  35  93 CALM      30.09S
Toms River     CLOUDY    38  36  92 CALM      30.12S
Belmar         LGT RAIN  40  39  97 N3        30.12F
$$

PAZ047>061-062-071-181200-
Eastern Pennsylvania

CITY           SKY/WX    TMP DP  RH WIND       PRES   REMARKS
Philadelphia   CLOUDY    39  35  86 CALM      30.13F
Allentown      CLOUDY    36  28  73 SE3       30.12F
Scranton       CLOUDY    32  28  85 CALM      30.07F
$$

CTZ002-004>006-009-010-012-RIZ004-006-007-MAZ004-011-015-181200-
Southern New England

 In CT

CITY           SKY/WX    TMP DP  RH WIND       PRES   REMARKS
Bradley Intl   CLOUDY    26  15  63 CALM      30.17S
Hartford       CLOUDY    28  14  55 CALM      30.18S
Danbury        FLURRIES  28  21  75 NE5       30.14F WCI  23
Wtrbury/Oxford FLURRIES  26  17  68 CALM      30.13F
Norwalk Harbor   N/A    N/A N/A N/A N7          N/A
Bridgeport     CLOUDY    31  21  66 NE6       30.16F WCI  25
Meriden        CLOUDY    28  13  53 CALM      30.16F
New Haven      CLOUDY    31  13  47 NE3       30.16F
Chester        CLOUDY    28  10  47 CALM      30.14F
Groton         CLOUDY    30  15  53 N6        30.17F WCI  24
Willimantic    CLOUDY    27  16  63 CALM      30.18F

 In RI

CITY           SKY/WX    TMP DP  RH WIND       PRES   REMARKS
Providence     CLOUDY    27  16  63 CALM      30.19F
Block Island   CLOUDY    34  23  64 SE3       30.17F
Westerly       CLOUDY    29  16  58 N6        30.18F WCI  23

In MA

CITY           SKY/WX    TMP DP  RH WIND       PRES   REMARKS
Boston         CLOUDY    24   7  48 N3        30.20S
Worcester      CLOUDY    20   7  57 S6        30.12S WCI  12
Westfield      CLOUDY    23  12  62 CALM      30.16F
Provincetown   CLOUDY    27  17  66 S3        30.19F
Nantucket      CLOUDY    28  21  75 NE3       30.19S
$$

ANZ330-335-338-340-345-350-353-355-181200-
Coastal Marine Observations


STATION/POSITION TIME  SKY/WX   TEMP    WIND        PRES    VSBY  WAVE
                                AIR SEA DIR/SP/G                  HT/PER
                 (UTC)          (F)     (DEG/KT/KT) (MB)    (MI)  (FT/S)
NY Harb Entrance 0950            45 51   80/ 14/ 16 1019.6          2/ 3
20 S Fire Island 0950            46 51   90/ 12/ 14 1020.3
15 E Barnegat Li 1030               49                N/A           2/ 4
Hudson Canyon    0950            51 54  120/ 10/ 12 1019.3          2/ 7
Kings Point      1030            33 42   80/  6/  7 1021.6
Execution Rocks  1030            37      70/ 12/ 16   N/A
Western LI Sound NOT AVBL
Central LI Sound 1015            36      90/  8/ 10   N/A           1
Robbins Reef     1036            36      60/  6/  7 1021.1
$$


>>>>>>>>>>>>>>>>>>>>>>>>>>>> KEY <<<<<<<<<<<<<<<<<<<<<<<<<<<
>                                                          <
>     SKY/WX - Sky Condition/Present Weather               <
>     TMP    - Temperature in Fahrenheit                   <
>     DP     - Dew Point in Fahrenheit                     <
>     RH     - Relative Humidity in Percent                <
>     WIND   - Direction (from) and Speed in MPH           <
>     PRES   - Mean Sea Level Pressure (inches of Hg)      <
>     WCI    - Wind Chill Index                            <
>     VSB    - Visibility in Miles                         <
>     HX     - Heat Index                                  <
>     TC     - Temperature in Celsius                      <
>     VRB    - Varibale Wind Direction                     <
>                                                          <
>>>>>>>>>>>>>>>>>>>>>>>>>>>> KEY <<<<<<<<<<<<<<<<<<<<<<<<<<<



USA.gov is the U.S. government's official web portal to all federal, state and local government web resources and services.